Location: Casper
(42.8670°N, 106.3130°W)
Time: 10:59:55
(UTC-07:00)

Daily predictions for brighter satellites

Satellite Brightness Start Highest point End
(mag) Time Altitude Azimuth Time Altitude Azimuth Time Altitude Azimuth
COSMOS 2455 4.0 18:10:36 10° SSE 18:14:56 21° ESE 18:19:17 10° ENE
SJ-6B 4.4 18:12:49 10° ESE 18:15:09 16° ENE 18:17:32 10° NNE
Okean 2 Rocket 4.4 18:12:14 10° SE 18:15:13 18° E 18:18:13 10° NE
NOAA 12 4.1 18:11:23 10° SSE 18:16:38 69° ENE 18:21:58 10° N
Cosmos 2263 Rocket 3.7 18:14:29 10° SE 18:17:17 14° E 18:20:06 10° ENE
Cosmos 1464 Rocket 4.0 18:11:47 10° N 18:17:51 60° E 18:23:55 10° SSE
Iridium 4 Rocket 3.6 18:14:44 10° NNE 18:19:11 40° E 18:23:18 10° SSE
Meteor 1-20 Rocket 4.3 18:13:48 10° S 18:19:26 63° E 18:25:12 10° NNE
Ariane Rocket 4.5 18:15:03 10° S 18:19:53 43° W 18:24:46 10° NNW
CZ-2C R/B 4.0 18:16:21 10° N 18:20:48 71° WNW 18:25:11 10° SSW
Cosmos 158 Rocket 3.9 18:16:23 10° SSW 18:21:16 87° WNW 18:26:11 10° NNE
ALOS 2.4 18:18:43 10° S 18:23:23 81° WSW 18:28:05 10° NNW
Cosmos 1908 Rocket 3.6 18:20:39 10° S 18:25:05 66° E 18:29:31 10° NNE
YAOGAN 1 3.6 18:23:14 10° S 18:27:27 53° W 18:31:42 10° NNW
Cosmos 1733 Rocket 4.2 18:23:27 10° SSW 18:27:37 47° WNW 18:31:49 10° N
Okean 1 3.4 18:25:43 10° N 18:29:38 51° E 18:33:30 10° SSE
MOS 1 4.4 18:26:44 10° SSE 18:32:24 85° WSW 18:38:08 10° NNW
ATLAS CENTAUR R/B 2.8 18:33:06 10° N 18:36:24 22° NE 18:39:07 13° E
Cosmos 1633 3.1 18:37:57 10° SSW 18:41:28 60° W 18:45:02 10° N
Landsat 4 3.7 18:38:44 10° NNE 18:42:30 86° WNW 18:46:16 10° SSW
EO 1 Del DPAF 3.1 18:39:13 10° NNE 18:43:04 77° ESE 18:46:52 10° S
Cosmos 1048 Rocket 4.2 18:42:31 10° SSW 18:47:50 78° WNW 18:53:07 10° NNE
Cosmos 2227 4.2 18:43:29 10° S 18:49:07 64° ESE 18:54:46 10° NNE
CZ-4 R/B 4.5 18:46:32 10° SW 18:49:28 19° W 18:52:23 10° NW
ARGOS Delta rocket 4.4 18:46:07 10° NNE 18:50:20 31° E 18:54:22 10° SSE
Cosmos 1975 Rocket 3.0 18:46:22 10° N 18:50:48 64° E 18:55:14 10° SSE
Meteor 2-4 Rocket 4.2 18:45:47 10° N 18:51:11 40° ENE 18:56:25 10° SE
Cosmos 1437 Rocket 2.8 18:50:32 10° S 18:54:36 86° ESE 18:58:45 10° N
Cosmos 2034 Rocket 4.0 18:49:46 10° N 18:56:12 87° E 19:02:33 10° S
Alouette 2 Rocket 3.9 18:54:43 10° SSE 18:57:53 31° E 19:01:19 10° NNE
Cosmos 2251 Rocket 4.2 18:55:56 10° SSE 19:00:28 31° E 19:05:01 10° NE
Cosmos 1536 3.6 18:59:16 10° SSE 19:02:45 29° E 19:06:17 10° NNE
Lacrosse 5 rocket 3.2 19:02:04 10° SSE 19:02:54 12° SE 19:02:54 12° SE
Meteor 1-19 Rocket 4.1 18:58:43 10° N 19:04:15 72° E 19:09:49 10° SSE
Cosmos 1184 Rocket 3.2 19:01:14 10° N 19:04:22 39° ENE 19:05:46 25° SE
SeaSat 1 3.1 19:01:41 19° ESE 19:04:36 36° NE 19:09:06 10° N
Cosmos 1634 Rocket 4.3 18:59:41 10° N 19:05:31 42° ENE 19:11:20 10° SE
SPOT 3 Rocket 4.5 19:02:39 10° S 19:07:42 52° W 19:12:49 10° NNW
Cosmos 1816 Rocket 4.5 19:01:59 10° S 19:08:17 71° E 19:14:38 10° NNE
Cosmos 1943 3.4 19:04:12 10° NNW 19:09:43 52° ENE 19:14:04 16° SE
ERS-2 2.4 19:10:19 10° S 19:13:59 69° WSW 19:17:40 10° NNW
Meteor 1-11 Rocket 3.7 19:10:22 10° S 19:15:52 62° E 19:21:32 10° NNE
Resurs 01 Rocket 2.2 19:16:17 31° E 19:17:21 35° ENE 19:21:24 10° N
USA 215 3.6 19:14:51 21° ENE 19:18:56 42° SE 19:25:04 10° SSW
Cosmos 1536 Rocket 3.9 19:17:09 10° N 19:21:21 41° ENE 19:22:22 35° ESE
Gbstr 26 Del rocket 2.8 19:21:18 10° WSW 19:25:00 69° NNW 19:26:33 34° NE
FREGAT/IRIS 4.2 19:22:41 10° SSW 19:25:27 35° W 19:28:13 10° NNW
HJ-1C 4.1 19:25:44 10° S 19:29:05 56° W 19:32:28 10° NNW
Envisat 2.9 19:26:24 10° SSE 19:31:28 82° ENE 19:36:35 10° NNW
CRYOSAT 2 4.5 19:26:44 10° N 19:31:37 76° W 19:36:28 10° SSW
Cosmos 1939 Rocket 3.2 19:35:26 47° ENE 19:35:26 47° ENE 19:39:06 10° N
Cosmos 494 Rocket 4.1 19:32:42 10° SSW 19:37:54 74° WNW 19:43:05 10° NNE
SL-8 R/B 4.5 19:33:37 10° WNW 19:38:10 42° N 19:39:39 33° NE
USA 186 2.8 19:42:27 38° N 19:42:27 38° N 19:44:38 10° N
Meteor 2-9 4.5 19:38:49 10° S 19:44:12 75° E 19:49:44 10° NNE
CZ-4C R/B 2.8 19:39:30 10° NNW 19:46:42 75° NE 19:50:37 33° SE
Meteor 1-23 Rocket 4.2 19:42:31 10° N 19:48:23 76° E 19:52:08 23° SSE
CENTAUR R/B 4.2 19:43:23 10° W 19:48:56 32° NW 19:55:13 10° NNE
SJ-6B 4.1 19:45:53 10° S 19:49:28 40° W 19:53:10 10° NNW
Meteor 1-4 Rocket 4.1 19:46:40 10° SW 19:49:57 36° WNW 19:53:19 10° N
SJ-11-01 4.3 19:51:21 58° ENE 19:51:21 58° ENE 19:55:47 10° N
Okean 2 Rocket 4.4 19:48:50 10° SSW 19:52:57 39° WNW 19:57:07 10° N
USA 267 4.0 19:51:14 32° ENE 19:53:07 39° NNE 19:59:05 10° NW
Thor Agena Rocket 3.9 19:49:49 10° N 19:54:51 64° WNW 19:59:49 10° SSW
COSMOS 2455 3.1 19:54:18 10° SW 20:00:18 66° WNW 20:06:20 10° NNE
Cosmos 2263 Rocket 2.2 19:54:51 10° SSW 20:00:25 80° WNW 20:06:04 10° NNE
Cosmos 2151 Rocket 4.1 19:58:20 10° SSW 20:02:45 60° W 20:07:11 10° N
ATLAS CENTAUR R/B 2.3 20:11:28 10° NW 20:15:25 48° WSW 20:15:25 48° WSW
Spot 2 Rocket 3.6 20:20:40 66° SW 20:20:59 69° WSW 20:26:05 10° NNW
BREEZE-M DEB (TANK) 4.4 20:20:52 10° W 20:21:57 20° WSW 20:21:57 20° WSW
H-2A R/B 4.0 20:27:54 18° NNE 20:27:54 18° NNE 20:29:31 10° N
Cosmos 2279 Rocket 4.0 20:21:51 10° N 20:28:06 76° W 20:29:38 53° SSW
CZ-3C R/B 4.4 20:26:24 10° SSW 20:29:40 19° S 20:29:40 19° S
SeaSat 1 3.8 20:41:30 32° SW 20:42:06 33° WSW 20:46:32 10° NW
Resurs 01 Rocket 3.8 20:53:51 22° W 20:53:54 22° W 20:57:24 10° NW
USA 215 3.5 21:02:13 62° NW 21:02:13 62° NW 21:08:30 10° WSW
CZ-4C R/B 4.4 21:28:53 10° WNW 21:34:56 27° WSW 21:35:53 27° WSW
USA 267 4.4 21:38:34 38° NW 21:38:34 38° NW 21:42:20 10° NW
